Retour au catalogue

STARLINK-6051

ActifCommunicationsVLEO
NORAD 56463·PAYLOAD·🇺🇸 United States

Lancé May 10, 2023 depuis Vandenberg Space Force Base

Loading…

Prochains Passages (prochaines 24 heures)

TLE

FraisSource: CelesTrak SupGP

Époque: Sep 15, 2026, 02:11 UTC

1 56463C 23064R   26258.09145833 -.00009462  00000+0 -79316-3 0  2584
2 56463  70.0025  26.9942 0003129 269.2942 113.1459 14.98323836    13

Suivez STARLINK-6051 en temps réel avec AllMySat

Download on the App Store